Flag for Canada Weather past 2 weeks in Fort Simpson, Northwest Territories, Canada

27 °F


Feels Like: 27 °F
Forecast: 25 / 40 °F
Wind: No wind

Location: Fort Simpson

Current Time: Oct 7, 2015 at 1:28:48 AM

Latest Report: Oct 7, 2015 at 1:00 AM

Visibility: 15 mi

Pressure: 29.88 "Hg

Humidity: 80%

Dew point: 21 °F

Location of Fort SimpsonLocation

Historic Weather in Fort Simpson — Graph


Fort Simpson temperature yesterday

Maximum temperature yesterday: 48 °F (at 4:00 PM)
Minimum temperature yesterday: 28 °F (at 7:00 AM)
Average temperature yesterday: 36 °F

Past Weeks' High & Low Weather Summary

High68 °F (Sep 30, 1:00 PM)100% (Sep 23, 6:00 PM)30.59 "Hg (Sep 23, 6:00 PM)
Low25 °F (Sep 28, 12:00 AM)29% (Sep 30, 9:00 PM)29.37 "Hg (Sep 30, 1:00 AM)
Average40 °F69%29.93 "Hg
* Reported Midnight between Sep 21 and Sep 22 — Midnight between Oct 6 and Oct 7, Fort Simpson, Weather by CustomWeather, © 2015

Note: Actual official high and low records may vary slightly from our data, if they occured in-between our weather recording intervals... More about our weather records


Fort Simpson weather history for previous 24 hours

Time TempWeatherWind HumidityBarometerVisibility
12:00 AM
Wed, Oct 7
28 °FClear.No wind80%29.90 "Hg15 mi
11:00 PM
Tue, Oct 6
28 °FPassing clouds.No wind74%29.90 "Hg15 mi
10:00 PM30 °FPassing clouds.No wind69%29.90 "Hg15 mi
9:00 PM32 °FPassing clouds.2 mph75%29.91 "Hg15 mi
8:00 PM36 °FPassing clouds.No wind65%29.91 "Hg15 mi
7:00 PM46 °FPassing clouds.2 mph46%29.92 "Hg15 mi
6:00 PM48 °FPartly sunny.3 mph43%29.93 "Hg15 mi
5:00 PM48 °FPassing clouds.2 mph43%29.95 "Hg15 mi
4:00 PM48 °FPassing clouds.6 mph43%29.96 "Hg15 mi
3:00 PM46 °FPassing clouds.No wind50%29.98 "Hg15 mi
2:00 PM45 °FPassing clouds.2 mph53%29.99 "Hg15 mi
1:00 PM43 °FPassing clouds.3 mph53%30.00 "Hg15 mi
12:00 PM39 °FPassing clouds.3 mph65%30.02 "Hg15 mi
11:00 AM34 °FScattered clouds.3 mph81%30.03 "Hg15 mi
10:00 AM30 °FScattered clouds.2 mph86%30.03 "Hg15 mi
9:00 AM28 °FPassing clouds.3 mph86%30.03 "Hg15 mi
8:00 AM28 °FPassing clouds.3 mph86%30.03 "Hg15 mi
7:00 AM28 °FPassing clouds.2 mph93%30.04 "Hg15 mi
6:00 AM30 °FPassing clouds.3 mph86%30.04 "Hg15 mi
5:00 AM30 °FPassing clouds.2 mph86%30.05 "Hg15 mi
4:00 AM30 °FPassing clouds.5 mph86%30.05 "Hg15 mi
3:00 AM32 °FClear.3 mph80%30.05 "Hg15 mi
2:00 AM30 °FClear.2 mph86%30.06 "Hg15 mi
1:00 AM36 °FClear.5 mph75%30.07 "Hg15 mi
Weather by CustomWeather, © 2015

See weather overviewHow to use our weather pages